GPS IIR-4

operational
NORAD ID: 26360 Int'l Des: 2000-025 Owner: AFSMC Country: US Constellation: GPS
MEOCIRCULARGNSS

About GPS IIR-4

Description loading...

Live Position

Loading 3D Globe...

Upcoming Passes

Altitude History

Altitude vs Time

uPlot chart will show altitude changes over time

Two-Line Element Set

1 26360U 00025A 25352.18623363 -.00000075 00000-0 00000-0 0 9996
2 26360 55.0484 26.6175 0038886 242.5017 188.1576 2.00567362187649
Epoch: Dec 18, 2025 • Age: 12 hours

Current Status

Altitude 20290.9 km
Velocity 3.86 km/s
Sub-Earth Point 45.80°N, 103.26°E
Launch Date May 11, 2000
Age 25.6 years
Type navigation

Technical Details

Classification Payload
Mass 1077.00 kg
Dry Mass 910.00 kg
Total Mass 2032.00 kg
Length 1.50 m
Diameter 1.90 m
Span 19.30 m
Shape Box + 2 Pan
Manufacturer LMMS
Bus Type Series 4000
Phase Status In Orbit
Owner/State AFSMC/US

Large Constellations

Loading constellations...